PA2JOK Weather Reports


time (UTC)temp
C
wind
direction
speed
KPH
gust
KPH
rain 1hr
cm
rain 24hr
cm
rain mn
cm
humidity
%
barometer
mb
20260506013302 9 77 3.2 16.1 0.00 0.00 0.00 73 1008.6
20260506011803 9 61 3.2 16.1 0.00 0.00 0.00 74 1008.7
20260506010303 9 51 3.2 9.7 0.00 0.00 0.00 75 1008.8
20260506004803 9 33 3.2 12.9 0.00 0.00 0.00 75 1008.9
20260506003302 9 26 0.0 6.4 0.00 0.00 0.00 75 1009.0
20260506001802 9 105 0.0 9.7 0.00 0.00 0.00 75 1009.2
20260506000303 9 151 0.0 3.2 0.00 0.00 0.00 75 1009.3
20260505234803 9 39 3.2 16.1 0.00 0.00 0.00 74 1009.4
20260505233302 9 85 0.0 19.3 0.00 0.00 0.00 74 1009.4
20260505231803 9 152 3.2 16.1 0.00 0.00 0.00 73 1009.6
20260505230303 9 64 0.0 9.7 0.00 0.00 0.00 71 1009.5
20260505224803 9 23 3.2 9.7 0.00 0.00 0.00 71 1009.7
20260505223302 9 27 0.0 12.9 0.00 0.00 0.00 70 1009.8
20260505221803 9 116 3.2 9.7 0.00 0.00 0.00 70 1009.8
20260505220302 9 78 0.0 9.7 0.00 0.00 0.00 70 1010.0
20260505214803 9 169 3.2 6.4 0.00 0.00 0.00 71 1010.0
20260505213303 9 26 0.0 12.9 0.00 0.00 0.00 71 1010.1
20260505211802 10 32 9.7 12.9 0.00 0.00 0.00 71 1010.0
20260505210302 10 25 0.0 16.1 0.00 0.00 0.00 71 1010.0
20260505204803 10 23 6.4 12.9 0.00 0.00 0.00 71 1010.1
20260505203303 10 58 6.4 16.1 0.00 0.00 0.00 70 1010.1
20260505201803 10 101 3.2 16.1 0.00 0.00 0.00 69 1010.3
20260505200303 10 69 0.0 9.7 0.00 0.00 0.00 69 1010.1
20260505194802 10 54 0.0 12.9 0.00 0.00 0.00 69 1010.1
20260505193303 10 14 3.2 12.9 0.00 0.00 0.00 71 1009.9
20260505191802 11 35 3.2 16.1 0.00 0.00 0.00 70 1009.8
20260505190303 11 40 3.2 16.1 0.00 0.00 0.00 70 1009.6
20260505184802 11 347 3.2 19.3 0.00 0.00 0.00 69 1009.4
20260505183302 11 33 3.2 16.1 0.00 0.00 0.00 68 1009.5
20260505181803 11 3 6.4 22.5 0.00 0.00 0.00 67 1009.3
20260505180303 11 18 0.0 37.0 0.00 0.00 0.00 66 1009.3
20260505174802 12 53 9.7 22.5 0.00 0.00 0.00 66 1009.4
20260505173302 12 28 6.4 19.3 0.00 0.00 0.00 65 1009.2
20260505171802 12 1 6.4 22.5 0.00 0.00 0.00 64 1009.2
20260505170303 13 10 12.9 27.4 0.00 0.00 0.00 63 1009.2
20260505164802 13 38 3.2 22.5 0.00 0.00 0.00 63 1009.5
20260505163303 13 18 12.9 22.5 0.00 0.00 0.00 63 1009.4
20260505161803 13 29 3.2 16.1 0.00 0.00 0.00 63 1009.5
20260505160303 13 11 16.1 19.3 0.00 0.00 0.00 65 1009.6
20260505153302 12 91 3.2 12.9 0.00 0.00 0.00 68 1009.7
20260505151802 12 72 6.4 16.1 0.00 0.00 0.00 69 1009.9
20260505150303 12 92 3.2 16.1 0.00 0.00 0.00 70 1009.9
20260505140303 11 118 6.4 19.3 0.00 0.00 0.00 73 1010.2
20260505130303 10 81 12.9 22.5 0.00 0.00 0.00 78 1010.8
20260505124802 10 184 0.0 16.1 0.00 0.00 0.00 77 1011.0
20260505123303 10 132 0.0 12.9 0.00 0.00 0.00 78 1010.8
20260505121802 10 91 6.4 12.9 0.00 0.00 0.00 78 1010.9
20260505120303 10 134 0.0 16.1 0.00 0.00 0.00 79 1010.8
20260505114803 10 96 6.4 16.1 0.00 0.00 0.00 80 1011.0
20260505113303 10 78 0.0 16.1 0.00 0.00 0.00 80 1011.0
20260505111803 10 102 6.4 19.3 0.00 0.00 0.00 81 1010.9
20260505110303 10 129 3.2 16.1 0.00 0.00 0.00 80 1011.1
20260505101802 10 79 16.1 16.1 0.00 0.00 0.00 82 1011.3
20260505100302 10 96 3.2 16.1 0.00 0.00 0.00 83 1011.3
20260505094802 9 102 16.1 19.3 0.00 0.00 0.00 83 1011.4
20260505093303 9 123 3.2 12.9 0.00 0.00 0.00 84 1011.4
20260505091803 9 82 9.7 16.1 0.00 0.00 0.00 84 1011.5
20260505090302 9 108 3.2 16.1 0.00 0.00 0.00 85 1011.6
20260505084802 8 67 12.9 22.5 0.00 0.00 0.00 85 1011.4
20260505083303 8 78 6.4 19.3 0.00 0.00 0.00 85 1011.5
20260505081803 8 104 6.4 16.1 0.00 0.00 0.00 86 1011.4
20260505080302 8 102 12.9 16.1 0.00 0.00 0.00 86 1011.5
20260505074803 8 115 6.4 22.5 0.00 0.00 0.00 86 1011.5
20260505073303 8 71 6.4 19.3 0.00 0.00 0.00 87 1011.3
20260505071803 8 57 6.4 22.5 0.00 0.00 0.00 87 1011.4
20260505070302 8 74 9.7 19.3 0.00 0.00 0.00 88 1011.4
20260505064802 8 85 6.4 16.1 0.00 0.00 0.00 88 1011.5
20260505063303 8 185 3.2 16.1 0.00 0.00 0.00 89 1011.5
20260505061804 8 108 3.2 16.1 0.00 0.00 0.00 89 1011.6
20260505060302 8 98 6.4 16.1 0.00 0.00 0.00 89 1011.8
20260505054803 8 114 3.2 16.1 0.00 0.00 0.00 88 1011.8
20260505053302 8 58 9.7 12.9 0.00 0.00 0.00 88 1011.8
20260505051803 8 91 9.7 16.1 0.00 0.00 0.00 88 1011.6
20260505050303 8 140 0.0 16.1 0.00 0.00 0.00 87 1011.4
20260505040304 9 119 0.0 12.9 0.00 0.03 0.00 87 1011.3
20260505034803 10 116 0.0 12.9 0.00 0.03 0.00 86 1011.4
20260505033303 10 65 0.0 6.4 0.00 0.03 0.00 86 1011.4
20260505031802 10 157 0.0 9.7 0.00 0.03 0.00 86 1011.4
20260505030303 10 8 0.0 16.1 0.00 0.03 0.00 85 1011.4
20260505024802 10 7 6.4 12.9 0.00 0.03 0.00 85 1011.4
20260505023303 10 40 0.0 9.7 0.00 0.03 0.00 85 1011.5
20260505021802 10 93 0.0 16.1 0.00 0.03 0.00 85 1011.5
20260505020302 10 177 0.0 9.7 0.00 0.03 0.00 84 1011.5
20260505014803 10 31 3.2 25.7 0.00 0.03 0.00 84 1011.5